Weather History for KASH - April, 2014

Change the Weather History Date:

Saturday, April 5, 2014

  Actual Average Record
Temperature  
Mean Temperature 43 °F -  
Max Temperature 50 °F 53 °F 73 °F (1991)
Min Temperature 36 °F 32 °F 12 °F (1954)
Degree Days  
Heating Degree Days 22    
Moisture  
Dew Point 33 °F    
Average Humidity 78    
Maximum Humidity 100    
Minimum Humidity 43    
Precipitation  
Precipitation 0.14 in - - ()
Sea Level Pressure  
Sea Level Pressure 30.27 in    
Wind  
Wind Speed 7 mph (NW)    
Max Wind Speed 22 mph    
Max Gust Speed 37 mph    
Visibility 7 miles    
Events Rain    
Averages and records for this station are not official NWS values.
T = Trace of Precipitation, MM = Missing Value Source: NWS Daily Summary

Daily Weather History Graph

Daily Weather History Graph

Search for Another Location

Airport or City:

Trip Planner

Search our weather history database for the weather conditions in past years. The results will help you decide how hot, cold, wet, or windy it might be!

Date:

Astronomy

Apr. 05, 2014 Rise Set
Actual Time 6:21 AM EDT 7:16 PM EDT
Civil Twilight 5:52 AM EDT 7:45 PM EDT
Nautical Twilight 5:18 AM EDT 8:19 PM EDT
Astronomical Twilight 4:42 AM EDT 8:55 PM EDT
Moon 10:21 AM EDT (4/5) 12:29 AM EDT (4/5)
Length of Visible Light 13h 52m
Length of Day
12h 55m
Waxing Crescent, 34% of the Moon is Illuminated
Apr 5
Waxing Crescent
Apr 7
First Quarter
Apr 15
Full
Apr 22
Last Quarter
Apr 29
New

Hourly Weather History & Observations

Time (EDT) Temp. Windchill Dew Point Humidity Pressure Visibility Wind Dir Wind Speed Gust Speed Precip Events Conditions
12:51 AM 36.0 °F 31.1 °F 34.9 °F 96% 30.63 in 3.0 mi Variable 5.8 mph - 0.00 in Rain Light Rain
1:05 AM 37.4 °F 32.8 °F 35.6 °F 93% 29.87 in 2.5 mi ENE 5.8 mph - 0.01 in Rain Light Rain
1:37 AM 37.4 °F 32.1 °F 35.6 °F 93% 29.85 in 4.0 mi East 6.9 mph - 0.01 in Rain Light Rain
1:51 AM 36.9 °F 32.2 °F 36.0 °F 97% 30.60 in 6.0 mi East 5.8 mph - 0.01 in   Overcast
2:28 AM 37.4 °F - 35.6 °F 93% 29.85 in 2.5 mi Calm Calm - 0.01 in Rain Light Rain
2:38 AM 37.4 °F - 35.6 °F 93% 29.84 in 1.5 mi Calm Calm - 0.09 in Rain Heavy Rain
2:51 AM 36.9 °F - 36.0 °F 97% 30.58 in 2.5 mi Calm Calm - 0.12 in Rain Light Rain
2:59 AM 37.4 °F 34.9 °F 35.6 °F 93% 29.83 in 4.0 mi North 3.5 mph - 0.00 in Rain Light Rain
3:08 AM 37.4 °F 33.8 °F 35.6 °F 93% 29.82 in 8.0 mi North 4.6 mph - 0.00 in Rain Light Rain
3:15 AM 37.4 °F 32.8 °F 35.6 °F 93% 29.80 in 9.0 mi North 5.8 mph - 0.00 in   Mostly Cloudy
3:33 AM 37.4 °F 34.9 °F 35.6 °F 93% 29.79 in 9.0 mi North 3.5 mph - 0.00 in   Mostly Cloudy
3:51 AM 36.9 °F 34.3 °F 36.0 °F 97% 30.52 in 10.0 mi North 3.5 mph - 0.00 in   Overcast
4:51 AM 36.9 °F 32.2 °F 36.9 °F 100% 30.50 in 4.0 mi North 5.8 mph - N/A   Overcast
5:28 AM 37.4 °F 32.1 °F 37.4 °F 100% 29.75 in 4.0 mi NNW 6.9 mph - N/A   Mostly Cloudy
5:51 AM 36.9 °F 32.2 °F 36.9 °F 100% 30.48 in 2.5 mi NNW 5.8 mph - N/A   Mostly Cloudy
6:09 AM 37.4 °F 32.1 °F 37.4 °F 100% 29.73 in 3.0 mi NNW 6.9 mph - 0.01 in   Mostly Cloudy
6:51 AM 36.9 °F 31.4 °F 36.9 °F 100% 30.47 in 1.5 mi NW 6.9 mph - 0.01 in   Mostly Cloudy
7:51 AM 36.9 °F 30.1 °F 36.9 °F 100% 30.48 in 2.5 mi NNW 9.2 mph - N/A   Overcast
8:51 AM 37.9 °F 33.5 °F 36.9 °F 96% 30.48 in 10.0 mi NW 5.8 mph - N/A   Overcast
9:43 AM 39.2 °F 33.0 °F 37.4 °F 93% 29.73 in 10.0 mi NW 9.2 mph - N/A   Overcast
9:51 AM 39.9 °F 35.1 °F 37.9 °F 93% 30.48 in 10.0 mi NNW 6.9 mph - N/A   Overcast
10:51 AM 41.9 °F 37.5 °F 38.8 °F 89% 30.47 in 10.0 mi NW 6.9 mph - N/A   Overcast
11:14 AM 46.4 °F 43.5 °F 39.2 °F 76% 29.72 in 10.0 mi Variable 5.8 mph - N/A   Mostly Cloudy
11:51 AM 48.9 °F - 36.0 °F 61% 30.45 in 10.0 mi NW 12.7 mph - N/A   Mostly Cloudy
12:02 PM 50.0 °F - 33.8 °F 54% 29.71 in 10.0 mi NW 16.1 mph 28.8 mph N/A   Mostly Cloudy
12:51 PM 48.9 °F - 32.9 °F 54% 30.45 in 10.0 mi West 15.0 mph 20.7 mph N/A   Mostly Cloudy
1:51 PM 47.8 °F - 31.1 °F 52% 30.46 in 10.0 mi NW 17.3 mph 27.6 mph N/A   Overcast
2:51 PM 46.9 °F - 30.0 °F 52% 30.47 in 10.0 mi West 12.7 mph 18.4 mph N/A   Mostly Cloudy
3:51 PM 46.9 °F - 29.1 °F 50% 30.48 in 10.0 mi West 16.1 mph 25.3 mph N/A   Mostly Cloudy
4:51 PM 46.9 °F - 25.2 °F 43% 30.50 in 10.0 mi NW 21.9 mph 36.8 mph N/A   Mostly Cloudy
5:51 PM 45.9 °F 39.1 °F 25.2 °F 44% 30.54 in 10.0 mi WNW 16.1 mph 32.2 mph N/A   Mostly Cloudy
6:51 PM 41.9 °F 33.1 °F 23.0 °F 47% 30.57 in 10.0 mi WNW 19.6 mph 33.4 mph N/A   Mostly Cloudy
7:51 PM 41.0 °F 35.2 °F 24.1 °F 51% 30.61 in 10.0 mi WNW 9.2 mph 21.9 mph N/A   Overcast
8:51 PM 39.9 °F 31.1 °F 22.1 °F 49% 30.64 in 10.0 mi WNW 17.3 mph 28.8 mph N/A   Overcast
9:51 PM 37.9 °F 31.5 °F 22.1 °F 53% 30.66 in 10.0 mi WNW 9.2 mph 19.6 mph N/A   Scattered Clouds
10:51 PM 37.9 °F 31.5 °F 22.1 °F 53% 30.68 in 10.0 mi WNW 9.2 mph - N/A   Mostly Cloudy
11:51 PM 37.9 °F 28.9 °F 22.1 °F 53% 30.68 in 10.0 mi NW 16.1 mph 19.6 mph N/A   Mostly Cloudy